Weather History for Denver Centennial, CO

Change the Weather History Date:

Sunday, September 1, 2013

  Actual Average Record
Temperature  
Mean Temperature 70 °F -  
Max Temperature 78 °F 80 °F 93 °F (2011)
Min Temperature 62 °F 52 °F 46 °F (2005)
Cooling Degree Days 5    
Month to date cooling degree days 5  
Growing Degree Days 20 (Base 50)    
Moisture  
Dew Point 54 °F    
Average Humidity 63    
Maximum Humidity 78    
Minimum Humidity 47    
Precipitation  
Precipitation T in - - ()
Month to date precipitation T  
Year to date precipitation 9.81  
Sea Level Pressure  
Sea Level Pressure 30.07 in    
Wind  
Wind Speed 6 mph (NNW)    
Max Wind Speed 16 mph    
Max Gust Speed 24 mph    
Visibility 10 miles    
Events Rain    
Averages and records for this station are not official NWS values.
T = Trace of Precipitation, MM = Missing Value Source: NWS Daily Summary

Daily Weather History Graph

Daily Weather History Graph

Search for Another Location

Airport:

Trip Planner

Search our weather history database for the weather conditions in past years. The results will help you decide how hot, cold, wet, or windy it might be!

Date:

Astronomy

Sep. 01, 2013 Rise Set
Actual Time 6:27 AM MDT 7:29 PM MDT
Civil Twilight 6:00 AM MDT 7:57 PM MDT
Nautical Twilight 5:27 AM MDT 8:30 PM MDT
Astronomical Twilight 4:53 AM MDT 9:04 PM MDT
Moon 2:52 AM MDT (9/1) 5:08 PM MDT (9/1)
Length of Visible Light 13h 57m
Length of Day
13h 02m
Waning Crescent, 13% of the Moon is Illuminated
Sep 1
Waning Crescent
Sep 5
New
Sep 12
First Quarter
Sep 19
Full
Sep 26
Last Quarter

Hourly Weather History & Observations

Time (MDT) Temp. Dew Point Humidity Pressure Visibility Wind Dir Wind Speed Gust Speed Precip Events Conditions
12:53 AM 70.0 °F 50.0 °F 49% 29.97 in 10.0 mi WNW 5.8 mph - N/A   Mostly Cloudy
1:53 AM 69.1 °F 50.0 °F 51% 29.98 in 10.0 mi NNW 9.2 mph - N/A   Mostly Cloudy
2:53 AM 66.9 °F 52.0 °F 59% 30.00 in 10.0 mi North 8.1 mph - N/A   Mostly Cloudy
3:53 AM 66.0 °F 52.0 °F 60% 30.01 in 10.0 mi NNW 8.1 mph - N/A   Mostly Cloudy
4:53 AM 64.0 °F 52.0 °F 65% 30.03 in 10.0 mi North 8.1 mph - N/A   Mostly Cloudy
5:53 AM 63.0 °F 52.0 °F 67% 30.06 in 10.0 mi North 5.8 mph - N/A   Mostly Cloudy
6:53 AM 63.0 °F 53.1 °F 70% 30.08 in 10.0 mi NNE 4.6 mph - N/A   Mostly Cloudy
7:53 AM 63.0 °F 54.0 °F 72% 30.09 in 10.0 mi NNE 3.5 mph - 0.00 in   Mostly Cloudy
8:05 AM 62.6 °F 55.4 °F 77% 30.29 in 10.0 mi North 4.6 mph - 0.00 in Rain Light Rain
8:53 AM 63.0 °F 55.0 °F 75% 30.12 in 10.0 mi North 3.5 mph - 0.00 in   Overcast
9:53 AM 64.9 °F 55.0 °F 70% 30.12 in 10.0 mi Calm Calm - N/A   Overcast
10:53 AM 64.9 °F 55.0 °F 70% 30.12 in 10.0 mi Calm Calm - N/A   Overcast
11:28 AM 66.2 °F 55.4 °F 68% 30.30 in 10.0 mi ESE 3.5 mph - N/A   Overcast
11:53 AM 68.0 °F 55.9 °F 65% 30.10 in 10.0 mi Variable 5.8 mph - N/A   Overcast
12:53 PM 70.0 °F 55.9 °F 61% 30.08 in 10.0 mi Variable 3.5 mph - N/A   Mostly Cloudy
1:53 PM 72.0 °F 55.9 °F 57% 30.06 in 10.0 mi SSE 4.6 mph - N/A   Mostly Cloudy
2:53 PM 75.0 °F 55.0 °F 50% 30.02 in 10.0 mi NE 5.8 mph - N/A   Mostly Cloudy
3:53 PM 77.0 °F 55.9 °F 48% 30.21 in 10.0 mi Calm Calm - N/A   Mostly Cloudy
4:53 PM 75.0 °F 57.0 °F 53% 30.02 in 10.0 mi WSW 9.2 mph - N/A   Mostly Cloudy
5:53 PM 73.9 °F 57.0 °F 55% 30.02 in 10.0 mi South 6.9 mph - N/A   Mostly Cloudy
6:53 PM 73.0 °F 54.0 °F 51% 30.01 in 10.0 mi WSW 6.9 mph - N/A   Mostly Cloudy
7:53 PM 71.1 °F 50.0 °F 47% 30.02 in 10.0 mi SW 8.1 mph - N/A   Mostly Cloudy
8:53 PM 70.0 °F 48.9 °F 47% 30.03 in 10.0 mi SSE 9.2 mph - N/A   Mostly Cloudy
9:53 PM 66.9 °F 48.9 °F 52% 30.05 in 10.0 mi South 9.2 mph - N/A   Mostly Cloudy
10:53 PM 68.0 °F 55.0 °F 63% 30.04 in 10.0 mi South 9.2 mph - N/A   Mostly Cloudy
11:53 PM 68.0 °F 55.9 °F 65% 30.03 in 10.0 mi South 11.5 mph - N/A   Scattered Clouds